Weather in Alencon

France     48˚25′59″N   0˚05′37″E
temp.,
°C
wind,
m/s
gust,
m/s
humid.,
%
clouds,
%
prec.,
mm/h
press.,
hPa
HPBL,
m
2 december, wed
wed201:00+3˚nnw3109355 0.1 1024354
04:00+3˚nnw4109022 0.0 1022292
07:00+3˚nnw398854 0.0 1022288
10:00+4˚nnw288933 0.0 1021296
13:00+7˚nw367833 0.0 1020602
16:00+5˚wnw3782100 0.1 1017585
19:00+5˚sw2790100 0.2 1016301
22:00+5˚wsw3894100 0.4 1015334
3 december, thu
thu301:00+6˚w2697100 0.9 1012344
04:00+4˚w2496100 0.0 1009144
07:00+4˚sw2592100 0.0 1006233
10:00+4˚sw4991100 0.1 1003656
13:00+4˚ssw51096100 2.4 998684
16:00+5˚ssw4996100 4.2 992744
19:00+5˚s2897100 7.8 986573
22:00+5˚sw3894100 3.9 983496
4 december, fri
fri401:00+4˚wsw3893100 4.1 982506
04:00+3˚w269790 0.0 981252
07:00+2˚nw3109095 0.0 981386
10:00+3˚wnw41084100 0.0 982619
13:00+5˚wnw4774100 0.0 9841069
16:00+4˚wsw378295 0.5 985613
19:00+1˚sw229590 0.6 98641
22:00s239734 0.0 98782
5 december, sat
sat501:00−1˚ssw259630 0.0 987140
04:00−1˚ssw39940 0.0 987290
07:00s4119247 0.0 987387
10:00+1˚s61287100 0.1 987957
13:00+2˚s51096100 1.5 987547
16:00+3˚s4895100 0.5 987600
19:00+2˚sse369996 1.1 987240
22:00+2˚ene009995 1.4 98863
6 december, sun
sun601:00+2˚nw259898 1.4 989296
04:00+2˚wnw4894100 0.1 989522
07:00+2˚wnw379794 0.3 991434
10:00+3˚nw2697100 0.6 992420
13:00+3˚wnw3696100 1.3 994381
16:00+2˚wnw4897100 3.4 995424
19:00+1˚wnw399276 3.8 997259
22:00−1˚sw239210 0.0 99979